Time,TemperatureF,DewpointF,PressureIn,WindDirection,WindDirectionDegrees,WindSpeedMPH,WindSpeedGustMPH,Humidity,HourlyPrecipIn,Conditions,Clouds,dailyrainin,SoftwareType,DateUTC
2013-01-08 00:02:00,42.4,28.0,29.76,West,275,10.0,14.0,57,0.00,,,0.00,weatherlink.com 1.10,2013-01-08 07:02:00,
2013-01-08 00:17:00,42.8,28.0,29.78,WNW,294,6.0,18.0,57,0.00,,,0.00,weatherlink.com 1.10,2013-01-08 07:17:00,
2013-01-08 00:32:00,43.2,28.0,29.78,WNW,299,5.0,14.0,55,0.00,,,0.00,weatherlink.com 1.10,2013-01-08 07:32:00,
2013-01-08 00:47:00,43.6,28.0,29.78,NW,307,7.0,19.0,54,0.00,,,0.00,weatherlink.com 1.10,2013-01-08 07:47:00,
2013-01-08 01:02:00,42.7,28.0,29.78,SW,231,6.0,19.0,57,0.00,,,0.00,weatherlink.com 1.10,2013-01-08 08:02:00,
2013-01-08 01:17:00,42.1,29.0,29.78,NW,323,9.0,14.0,60,0.00,,,0.00,weatherlink.com 1.10,2013-01-08 08:17:00,
2013-01-08 01:32:00,42.4,28.0,29.78,NW,320,6.0,15.0,58,0.00,,,0.00,weatherlink.com 1.10,2013-01-08 08:32:00,
2013-01-08 01:48:00,41.2,29.0,29.80,North,360,6.0,18.0,63,0.00,,,0.00,weatherlink.com 1.10,2013-01-08 08:48:00,
2013-01-08 02:03:00,41.0,29.0,29.80,North,355,10.0,15.0,63,0.00,,,0.00,weatherlink.com 1.10,2013-01-08 09:03:00,
2013-01-08 02:18:00,41.1,28.0,29.80,North,349,11.0,13.0,61,0.00,,,0.00,weatherlink.com 1.10,2013-01-08 09:18:00,
2013-01-08 02:33:00,40.9,29.0,29.82,North,350,12.0,15.0,62,0.00,,,0.00,weatherlink.com 1.10,2013-01-08 09:33:00,
2013-01-08 02:48:00,41.2,28.0,29.82,North,355,6.0,18.0,60,0.00,,,0.00,weatherlink.com 1.10,2013-01-08 09:48:00,
2013-01-08 03:03:00,41.1,28.0,29.83,NNW,343,9.0,15.0,59,0.00,,,0.00,weatherlink.com 1.10,2013-01-08 10:03:00,
2013-01-08 03:19:00,40.7,28.0,29.84,NNW,336,12.0,17.0,60,0.00,,,0.00,weatherlink.com 1.10,2013-01-08 10:19:00,
2013-01-08 03:33:00,40.7,28.0,29.85,North,349,11.0,22.0,61,0.00,,,0.00,weatherlink.com 1.10,2013-01-08 10:33:00,
2013-01-08 03:48:00,40.3,28.0,29.86,NNE,14,10.0,16.0,62,0.00,,,0.00,weatherlink.com 1.10,2013-01-08 10:48:00,
2013-01-08 04:03:00,40.6,28.0,29.86,NW,325,12.0,20.0,61,0.00,,,0.00,weatherlink.com 1.10,2013-01-08 11:03:00,
2013-01-08 04:18:00,40.4,28.0,29.87,NNW,338,13.0,24.0,61,0.00,,,0.00,weatherlink.com 1.10,2013-01-08 11:18:00,
2013-01-08 04:33:00,40.2,28.0,29.87,NW,322,11.0,16.0,61,0.00,,,0.00,weatherlink.com 1.10,2013-01-08 11:33:00,
2013-01-08 04:48:00,40.0,28.0,29.88,NNW,333,5.0,12.0,62,0.00,,,0.00,weatherlink.com 1.10,2013-01-08 11:48:00,
2013-01-08 05:03:00,40.0,28.0,29.89,NW,315,10.0,22.0,62,0.00,,,0.00,weatherlink.com 1.10,2013-01-08 12:03:00,
2013-01-08 05:18:00,40.2,27.0,29.89,NW,319,7.0,15.0,59,0.00,,,0.00,weatherlink.com 1.10,2013-01-08 12:18:00,
2013-01-08 05:33:00,40.3,26.0,29.89,North,360,11.0,18.0,58,0.00,,,0.00,weatherlink.com 1.10,2013-01-08 12:33:00,
2013-01-08 05:48:00,39.9,27.0,29.90,NNW,346,8.0,16.0,60,0.00,,,0.00,weatherlink.com 1.10,2013-01-08 12:48:00,
2013-01-08 06:03:00,39.2,27.0,29.92,WNW,293,5.0,13.0,63,0.00,,,0.00,weatherlink.com 1.10,2013-01-08 13:03:00,
2013-01-08 06:18:00,39.0,27.0,29.92,NNW,342,4.0,13.0,63,0.00,,,0.00,weatherlink.com 1.10,2013-01-08 13:18:00,
2013-01-08 06:33:00,38.9,26.0,29.93,NNW,340,8.0,13.0,61,0.00,,,0.00,weatherlink.com 1.10,2013-01-08 13:33:00,
2013-01-08 06:48:00,39.4,24.0,29.93,NNW,338,6.0,12.0,55,0.00,,,0.00,weatherlink.com 1.10,2013-01-08 13:48:00,
2013-01-08 07:03:00,38.9,26.0,29.93,North,360,6.0,8.0,60,0.00,,,0.00,weatherlink.com 1.10,2013-01-08 14:03:00,
2013-01-08 07:18:00,38.6,26.0,29.93,NNW,338,0.0,8.0,61,0.00,,,0.00,weatherlink.com 1.10,2013-01-08 14:18:00,
2013-01-08 07:33:00,37.3,26.0,29.93,East,90,5.0,5.0,63,0.00,,,0.00,weatherlink.com 1.10,2013-01-08 14:33:00,
2013-01-08 07:48:00,36.5,26.0,29.95,ENE,60,8.0,9.0,66,0.00,,,0.00,weatherlink.com 1.10,2013-01-08 14:48:00,
2013-01-08 08:03:00,36.9,25.0,29.96,ESE,113,2.0,5.0,63,0.00,,,0.00,weatherlink.com 1.10,2013-01-08 15:03:00,
2013-01-08 08:18:00,36.6,26.0,29.97,WNW,292,0.0,2.0,65,0.00,,,0.00,weatherlink.com 1.10,2013-01-08 15:18:00,
2013-01-08 08:33:00,35.4,25.0,29.98,East,97,3.0,5.0,67,0.00,,,0.00,weatherlink.com 1.10,2013-01-08 15:33:00,
2013-01-08 08:49:00,35.6,26.0,29.99,ESE,108,0.0,2.0,68,0.00,,,0.00,weatherlink.com 1.10,2013-01-08 15:49:00,
2013-01-08 09:04:00,36.0,26.0,29.99,NNE,12,0.0,4.0,67,0.00,,,0.00,weatherlink.com 1.10,2013-01-08 16:04:00,
2013-01-08 09:19:00,36.1,25.0,30.00,NNE,30,0.0,4.0,65,0.00,,,0.00,weatherlink.com 1.10,2013-01-08 16:19:00,
2013-01-08 09:34:00,37.0,26.0,30.01,SW,217,0.0,6.0,64,0.00,,,0.00,weatherlink.com 1.10,2013-01-08 16:34:00,
2013-01-08 09:49:00,38.6,26.0,30.01,WSW,246,0.0,11.0,60,0.00,,,0.00,weatherlink.com 1.10,2013-01-08 16:49:00,
2013-01-08 10:04:00,38.9,24.0,30.01,NE,36,0.0,3.0,56,0.00,,,0.00,weatherlink.com 1.10,2013-01-08 17:04:00,
2013-01-08 10:19:00,40.4,23.0,30.01,North,360,4.0,10.0,51,0.00,,,0.00,weatherlink.com 1.10,2013-01-08 17:19:00,
2013-01-08 10:34:00,40.6,24.0,30.01,NW,321,0.0,4.0,51,0.00,,,0.00,weatherlink.com 1.10,2013-01-08 17:34:00,
2013-01-08 10:49:00,40.6,23.0,30.01,North,355,2.0,5.0,50,0.00,,,0.00,weatherlink.com 1.10,2013-01-08 17:49:00,
2013-01-08 11:04:00,40.4,25.0,30.01,North,355,5.0,10.0,55,0.00,,,0.00,weatherlink.com 1.10,2013-01-08 18:04:00,
2013-01-08 11:19:00,40.1,24.0,30.00,North,350,7.0,10.0,54,0.00,,,0.00,weatherlink.com 1.10,2013-01-08 18:19:00,
2013-01-08 11:34:00,39.8,25.0,30.00,NW,325,6.0,11.0,56,0.00,,,0.00,weatherlink.com 1.10,2013-01-08 18:34:00,
2013-01-08 11:49:00,39.9,25.0,29.99,NW,322,8.0,9.0,56,0.00,,,0.00,weatherlink.com 1.10,2013-01-08 18:49:00,
2013-01-08 12:04:00,40.0,25.0,29.98,North,360,6.0,11.0,56,0.00,,,0.00,weatherlink.com 1.10,2013-01-08 19:04:00,
2013-01-08 12:19:00,40.4,25.0,29.98,North,351,2.0,9.0,54,0.00,,,0.00,weatherlink.com 1.10,2013-01-08 19:19:00,
2013-01-08 12:34:00,40.8,26.0,29.97,NW,304,4.0,4.0,55,0.00,,,0.00,weatherlink.com 1.10,2013-01-08 19:34:00,
2013-01-08 12:49:00,41.3,24.0,29.95,NW,313,0.0,2.0,51,0.00,,,0.00,weatherlink.com 1.10,2013-01-08 19:49:00,
2013-01-08 13:04:00,41.5,24.0,29.95,North,5,0.0,3.0,51,0.00,,,0.00,weatherlink.com 1.10,2013-01-08 20:04:00,
2013-01-08 13:19:00,41.0,24.0,29.95,North,351,3.0,5.0,51,0.00,,,0.00,weatherlink.com 1.10,2013-01-08 20:19:00,
2013-01-08 13:34:00,41.1,25.0,29.95,NNW,340,5.0,5.0,53,0.00,,,0.00,weatherlink.com 1.10,2013-01-08 20:34:00,
2013-01-08 13:49:00,41.1,24.0,29.94,NNW,338,2.0,5.0,52,0.00,,,0.00,weatherlink.com 1.10,2013-01-08 20:49:00,
2013-01-08 14:04:00,41.6,25.0,29.94,NW,312,0.0,4.0,52,0.00,,,0.00,weatherlink.com 1.10,2013-01-08 21:04:00,
2013-01-08 14:19:00,42.3,25.0,29.94,NW,319,4.0,4.0,50,0.00,,,0.00,weatherlink.com 1.10,2013-01-08 21:19:00,
2013-01-08 14:34:00,42.2,25.0,29.94,WNW,286,1.0,4.0,50,0.00,,,0.00,weatherlink.com 1.10,2013-01-08 21:34:00,
2013-01-08 14:49:00,42.0,25.0,29.93,West,271,2.0,3.0,52,0.00,,,0.00,weatherlink.com 1.10,2013-01-08 21:49:00,
2013-01-08 15:04:00,41.6,26.0,29.93,West,271,0.0,0.0,54,0.00,,,0.00,weatherlink.com 1.10,2013-01-08 22:04:00,
2013-01-08 15:19:00,40.8,26.0,29.93,NNW,346,3.0,4.0,55,0.00,,,0.00,weatherlink.com 1.10,2013-01-08 22:19:00,
2013-01-08 15:34:00,40.4,26.0,29.93,West,280,1.0,4.0,58,0.00,,,0.00,weatherlink.com 1.10,2013-01-08 22:34:00,
2013-01-08 15:49:00,39.5,27.0,29.93,WNW,295,3.0,5.0,62,0.00,,,0.00,weatherlink.com 1.10,2013-01-08 22:49:00,
2013-01-08 16:04:00,38.8,27.0,29.93,WNW,298,0.0,3.0,64,0.00,,,0.00,weatherlink.com 1.10,2013-01-08 23:04:00,
2013-01-08 16:19:00,38.1,27.0,29.92,WNW,298,0.0,1.0,65,0.00,,,0.00,weatherlink.com 1.10,2013-01-08 23:19:00,
2013-01-08 16:34:00,37.8,28.0,29.92,WNW,298,0.0,0.0,68,0.00,,,0.00,weatherlink.com 1.10,2013-01-08 23:34:00,
2013-01-08 16:49:00,37.4,28.0,29.92,WNW,298,0.0,1.0,68,0.00,,,0.00,weatherlink.com 1.10,2013-01-08 23:49:00,
2013-01-08 17:04:00,37.0,28.0,29.92,NW,309,3.0,3.0,70,0.00,,,0.00,weatherlink.com 1.10,2013-01-09 00:04:00,
2013-01-08 17:19:00,36.5,28.0,29.91,NW,322,0.0,0.0,72,0.00,,,0.00,weatherlink.com 1.10,2013-01-09 00:19:00,
2013-01-08 17:34:00,35.9,29.0,29.91,NW,313,0.0,4.0,75,0.00,,,0.00,weatherlink.com 1.10,2013-01-09 00:34:00,
2013-01-08 17:49:00,35.6,29.0,29.91,NW,313,0.0,2.0,77,0.00,,,0.00,weatherlink.com 1.10,2013-01-09 00:49:00,
2013-01-08 18:04:00,35.3,29.0,29.91,ENE,60,3.0,3.0,79,0.00,,,0.00,weatherlink.com 1.10,2013-01-09 01:04:00,
2013-01-08 18:19:00,34.9,29.0,29.90,ENE,60,0.0,1.0,80,0.00,,,0.00,weatherlink.com 1.10,2013-01-09 01:19:00,
2013-01-08 18:34:00,34.7,29.0,29.90,ENE,60,0.0,0.0,81,0.00,,,0.00,weatherlink.com 1.10,2013-01-09 01:34:00,
2013-01-08 18:49:00,34.5,29.0,29.90,ENE,60,0.0,1.0,81,0.00,,,0.00,weatherlink.com 1.10,2013-01-09 01:49:00,
2013-01-08 19:04:00,34.6,29.0,29.89,ENE,60,0.0,2.0,81,0.00,,,0.00,weatherlink.com 1.10,2013-01-09 02:04:00,
2013-01-08 19:19:00,34.3,29.0,29.89,ENE,60,0.0,0.0,82,0.00,,,0.00,weatherlink.com 1.10,2013-01-09 02:19:00,
2013-01-08 19:34:00,34.2,30.0,29.89,West,279,1.0,3.0,83,0.00,,,0.00,weatherlink.com 1.10,2013-01-09 02:34:00,
2013-01-08 19:49:00,33.8,30.0,29.88,NE,45,0.0,2.0,84,0.00,,,0.00,weatherlink.com 1.10,2013-01-09 02:49:00,
2013-01-08 20:04:00,33.6,30.0,29.88,NE,45,0.0,2.0,85,0.00,,,0.00,weatherlink.com 1.10,2013-01-09 03:04:00,
2013-01-08 20:19:00,33.8,30.0,29.88,NE,45,0.0,2.0,84,0.00,,,0.00,weatherlink.com 1.10,2013-01-09 03:19:00,
2013-01-08 20:34:00,33.7,30.0,29.88,NW,317,0.0,1.0,85,0.00,,,0.00,weatherlink.com 1.10,2013-01-09 03:34:00,
2013-01-08 20:49:00,33.3,30.0,29.88,WNW,292,2.0,3.0,86,0.00,,,0.00,weatherlink.com 1.10,2013-01-09 03:49:00,
2013-01-08 21:04:00,33.5,30.0,29.88,SW,226,2.0,4.0,86,0.00,,,0.00,weatherlink.com 1.10,2013-01-09 04:04:00,
2013-01-08 21:19:00,33.7,30.0,29.88,West,272,2.0,4.0,86,0.00,,,0.00,weatherlink.com 1.10,2013-01-09 04:19:00,
2013-01-08 21:34:00,33.5,30.0,29.88,NNE,24,1.0,3.0,86,0.00,,,0.00,weatherlink.com 1.10,2013-01-09 04:34:00,
2013-01-08 21:50:00,33.8,30.0,29.87,South,184,0.0,4.0,86,0.00,,,0.00,weatherlink.com 1.10,2013-01-09 04:50:00,
2013-01-08 22:04:00,35.3,31.0,29.88,NW,320,0.0,3.0,83,0.00,,,0.00,weatherlink.com 1.10,2013-01-09 05:04:00,
2013-01-08 22:19:00,36.4,32.0,29.87,SSE,165,0.0,3.0,85,0.00,,,0.00,weatherlink.com 1.10,2013-01-09 05:19:00,
2013-01-08 22:34:00,37.5,33.0,29.87,ESE,119,1.0,2.0,83,0.00,,,0.00,weatherlink.com 1.10,2013-01-09 05:34:00,
2013-01-08 22:50:00,37.8,32.0,29.87,WSW,244,0.0,1.0,80,0.00,,,0.00,weatherlink.com 1.10,2013-01-09 05:50:00,
2013-01-08 23:05:00,38.4,33.0,29.87,SSW,199,1.0,5.0,80,0.00,,,0.00,weatherlink.com 1.10,2013-01-09 06:05:00,
2013-01-08 23:20:00,38.0,33.0,29.88,NE,51,4.0,7.0,82,0.00,,,0.00,weatherlink.com 1.10,2013-01-09 06:20:00,
2013-01-08 23:35:00,44.0,35.0,29.87,ESE,102,5.0,9.0,70,0.00,,,0.00,weatherlink.com 1.10,2013-01-09 06:35:00,
2013-01-08 23:50:00,43.8,34.0,29.87,SSW,192,0.0,10.0,69,0.00,,,0.00,weatherlink.com 1.10,2013-01-09 06:50:00,